Location: Blue Sky Observatory
(43.1153°N, 70.9036°W)
Time: 16:45:38
(UTC-04:00)

Daily predictions for brighter satellites

Satellite Brightness Start Highest point End
(mag) Time Altitude Azimuth Time Altitude Azimuth Time Altitude Azimuth
EO 1 Delta rocket 4.4 19:44:53 10° NNE 19:49:31 44° E 19:54:54 10° SSE
CZ-4B DEB 2.9 19:48:05 10° SSE 19:51:20 61° ENE 19:54:35 10° N
Iridium 4 Rocket 3.8 19:52:38 10° NNE 19:57:16 40° E 20:01:31 10° SSE
Lacrosse 5 1.9 19:52:21 10° NW 19:57:25 73° NE 20:02:29 10° SE
Cosmos 2227 Rocket 2.9 19:53:20 10° NNW 19:58:53 58° WSW 20:04:24 10° S
Spot 2 Rocket 4.3 19:57:43 10° S 20:02:42 56° W 20:07:42 10° NNW
Cosmos 2322 Rocket 3.9 20:02:20 10° ESE 20:03:59 11° E 20:05:38 10° ENE
Cosmos 1500 3.6 20:02:20 10° SSE 20:05:50 38° E 20:09:22 10° NNE
SL-24 R/B - RUBIN 2 4.5 20:02:19 10° SSW 20:08:13 89° SE 20:14:49 10° NE
Cosmos 1975 2.8 20:04:32 10° S 20:08:37 70° E 20:12:42 10° NNE
Lacrosse 5 rocket 3.2 20:07:05 10° WNW 20:10:05 23° SW 20:13:00 10° S
CZ-2D R/B 3.2 20:06:22 10° SSE 20:10:13 75° ENE 20:14:08 10° N
Cosmos 2084 3.7 20:06:17 10° NW 20:10:19 67° SW 20:14:34 10° SSE
Cosmos 1340 4.1 20:07:24 10° NNE 20:10:24 22° ENE 20:12:37 14° ESE
Cosmos 1937 Rocket 3.7 20:07:16 10° NNW 20:12:28 55° ENE 20:17:39 10° SE
Envisat 4.1 20:09:25 11° ESE 20:13:18 27° ENE 20:17:31 10° N
Cosmos 2297 Rocket 2.7 20:08:01 10° NNW 20:13:37 62° WSW 20:19:10 10° S
Cosmos 1605 Rocket 4.2 20:12:26 10° S 20:18:46 79° W 20:25:02 10° N
H-2A R/B 3.6 20:17:52 14° E 20:19:42 18° ENE 20:22:31 10° NNE
Cosmos 990 Rocket 4.4 20:14:58 10° N 20:20:03 47° ENE 20:24:22 14° SE
Cosmos 2298 Rocket 4.1 20:15:25 10° NNW 20:20:46 85° WSW 20:26:06 10° SSE
Cosmos 1626 Rocket 3.7 20:16:27 10° NNW 20:20:51 76° W 20:25:11 10° S
BREEZE-M DEB (TANK) 4.0 20:18:16 10° NW 20:21:27 53° NNE 20:29:06 13° E
USA 186 1.4 20:22:23 10° S 20:25:21 85° W 20:28:07 10° NNW
ALOS 2.7 20:21:50 10° S 20:26:28 66° WSW 20:31:08 10° NNW
Cosmos 1515 3.8 20:25:42 10° N 20:29:33 79° W 20:33:22 10° S
Cosmos 2100 Rocket 4.1 20:24:15 10° SSE 20:30:21 57° E 20:36:26 10° NNE
OAO 2 Rocket 4.4 20:26:19 10° WSW 20:30:42 31° S 20:33:37 18° SE
Cosmos 1602 Rocket 4.2 20:27:07 10° NNW 20:31:31 58° W 20:35:50 10° S
CZ-4 DEB 3.1 20:30:36 23° SE 20:32:11 42° ENE 20:35:11 10° N
ERS-1 Rocket 3.2 20:28:46 14° SE 20:32:54 50° ENE 20:37:45 10° N
Cosmos 1758 Rocket 4.4 20:30:27 10° NNE 20:34:18 30° ENE 20:36:02 22° ESE
YAOGAN 11 4.2 20:34:20 15° SSE 20:37:56 59° ENE 20:42:19 10° N
Cosmos 1763 Rocket 3.5 20:40:25 10° S 20:45:22 55° ESE 20:50:20 10° NNE
Cosmos 2061 Rocket 3.9 20:40:26 10° S 20:46:40 69° E 20:52:53 10° NNE
Cosmos 1697 Rocket 3.0 20:42:16 10° SSW 20:47:54 71° WNW 20:53:34 10° NNE
deb Chang Zheng 4 4.4 20:44:33 10° NE 20:48:31 30° E 20:49:22 28° ESE
Tiangong 1 2.1 20:46:08 10° W 20:49:00 33° SSW 20:49:40 30° S
Cosmos 1939 Rocket 3.0 20:47:20 25° SE 20:49:32 57° ENE 20:53:38 10° N
Cosmos 1743 2.6 20:46:18 10° S 20:50:11 75° E 20:54:07 10° NNE
Cosmos 1459 Rocket 3.8 20:47:47 10° S 20:53:49 81° E 20:59:59 10° N
ARGOS 4.3 20:57:33 23° E 20:58:56 26° ENE 21:03:20 10° N
Cosmos 1725 Rocket 4.3 20:58:22 22° SSE 21:01:56 45° E 21:07:49 10° NNE
SL-16 R/B 2.7 21:00:04 27° SE 21:01:56 34° ESE 21:07:01 10° NE
Cosmos 1125 Rocket 3.9 20:57:12 10° N 21:02:13 45° ENE 21:03:59 33° ESE
Cosmos 2058 Rocket 3.3 21:03:44 36° SE 21:05:09 49° E 21:09:31 10° NNE
Cosmos 1606 Rocket 3.4 21:01:24 14° S 21:05:11 78° E 21:09:39 10° N
Cosmos 2098 Rocket 3.9 21:02:48 13° SSE 21:08:39 57° E 21:14:00 10° NNE
BREEZE-M DEB (TANK) 3.8 20:54:11 10° WSW 21:09:10 79° SSE 21:12:09 24° ENE
Cosmos 841 Rocket 3.4 21:05:22 10° SSW 21:10:37 82° ESE 21:15:51 10° NNE
ASTEX 1 3.6 21:05:59 10° NNE 21:10:52 51° E 21:12:21 38° SE
Cosmos 1980 Rocket 2.4 21:06:40 10° SSW 21:12:21 74° WNW 21:18:04 10° NNE
Cosmos 540 Rocket 4.2 21:16:03 33° E 21:16:03 33° E 21:19:57 10° NE
RESURS DK-1 4.1 21:11:52 10° NW 21:15:28 29° WSW 21:18:10 15° SSW
Cosmos 2233 Rocket 4.4 21:22:18 38° ESE 21:23:16 40° E 21:29:02 10° NNE
Cosmos 1726 Rocket 3.7 21:24:43 22° SSW 21:27:27 71° W 21:31:53 10° N
Cosmos 1842 3.1 21:23:36 10° N 21:27:31 86° W 21:27:49 75° S
Cosmos 1666 2.6 21:29:44 72° SW 21:30:03 79° WNW 21:33:52 10° N
YAOGAN 6 3.0 21:30:59 56° NNE 21:30:59 56° NNE 21:34:09 10° N
Cosmos 372 Rocket 4.1 21:28:12 10° N 21:33:13 52° ENE 21:33:43 50° E
SL-08 R/B 4.5 21:29:48 13° S 21:35:32 82° W 21:41:43 10° N
Cosmos 2263 Rocket 2.5 21:30:28 10° NNW 21:35:50 47° ENE 21:36:35 44° E
Cosmos 332 Rocket 3.9 21:37:52 55° ENE 21:37:52 55° ENE 21:42:08 10° NNE
Lacrosse 5 3.8 21:36:14 10° WNW 21:39:54 20° WSW 21:41:56 16° SSW
Cosmos 2016 Rocket 4.5 21:39:12 10° SSW 21:45:13 58° W 21:51:22 10° N
SL-19 R/B 4.1 21:39:53 10° NNE 21:45:06 59° E 21:45:06 59° E
Cosmos 2322 Rocket 2.0 21:43:34 24° SSW 21:47:05 85° ESE 21:52:45 10° NNE
SPOT 5 3.1 21:47:47 52° SSW 21:48:47 66° WSW 21:53:31 10° NNW
Envisat 4.1 21:49:38 24° SSW 21:52:08 39° W 21:56:53 10° NNW
MetOp-A 4.3 21:52:04 51° SSW 21:53:20 70° WSW 21:58:42 10° NNW
H-2A R/B 2.9 21:55:01 40° WSW 21:55:24 41° W 21:59:23 10° NNW
Cosmos 2228 3.3 21:55:49 65° WNW 21:55:49 65° WNW 21:59:57 10° N
CZ-4B R/B 4.1 21:54:55 10° NNE 21:58:08 40° NE 21:58:08 40° NE
Terra 3.0 22:03:43 31° NE 22:03:43 31° NE 22:06:54 10° N
Meteor 2-5 Rocket 3.8 21:56:43 10° N 22:02:35 64° ENE 22:02:35 64° ENE
Meteor 1-24 Rocket 4.4 22:03:59 10° N 22:09:12 43° ENE 22:09:12 43° ENE
Cosmos 2346 Rocket 4.3 22:13:01 10° N 22:19:15 87° W 22:19:34 81° SSW
BREEZE-M DEB (TANK) 4.4 22:16:30 10° W 22:17:24 20° W 22:17:24 20° W
H-2A R/B 2.6 22:25:29 50° N 22:25:29 50° N 22:29:11 10° N
BREEZE-M DEB (TANK) 3.9 22:14:45 10° WSW 22:25:52 85° SSW 22:25:52 85° SSW
Cosmos 2278 Rocket 4.1 22:25:54 10° N 22:29:35 17° NE 22:29:36 17° NE
USA 215 3.4 22:37:03 59° ENE 22:37:41 62° NNE 22:44:07 10° NW
ARGOS 3.9 22:39:04 45° W 22:39:04 45° W 22:44:05 10° NNW
SL-16 R/B 3.5 22:41:43 15° WSW 22:45:59 37° WNW 22:51:14 10° N
Cosmos 1844 Rocket 3.8 22:41:36 10° NNW 22:45:36 35° NNE 22:45:36 35° NNE
Cosmos 2360 Rocket 3.1 22:58:32 43° N 22:58:32 43° N 23:02:22 10° NNE
Cosmos 2219 Rocket 4.4 23:19:24 15° NE 23:19:24 15° NE 23:20:22 10° NE
Cosmos 2263 Rocket 3.9 23:14:57 10° NW 23:18:16 24° W 23:18:16 24° W
Cosmos 2237 Rocket 4.5 23:43:15 16° NE 23:43:15 16° NE 23:44:25 10° NE
Terra 4.2 23:42:36 18° NW 23:42:36 18° NW 23:44:17 10° NW
Cosmos 2333 Rocket 4.2 23:51:29 20° NE 23:51:29 20° NE 23:53:16 10° NNE
ATLAS 3B R/B 4.0 23:52:25 33° NE 23:52:25 33° NE 23:56:19 10° NE
